<?xml version="1.0"?>
<gpx xmlns="http://www.topografix.com/GPX/1/1" xmlns:xsi="http://www.w3.org/2001/XMLSchema-instance" version="1.1" creator="GPX RubyGem 1.0.0 -- http://dougfales.github.io/gpx/" xsi:schemaLocation="http://www.topografix.com/GPX/1/1 http://www.topografix.com/GPX/1/1/gpx.xsd">
  <metadata>
    <name/>
    <time>2026-05-08T04:41:53+00:00</time>
    <bound minlat="90.0" minlon="180.0" maxlat="-90.0" maxlon="-180.0"/>
  </metadata>
  <trk>
    <name/>
    <trkseg>
      <trkpt lat="46.098559" lon="7.955334">
        <time>1970-01-01T00:00:00+00:00</time>
        <ele>1652.0</ele>
      </trkpt>
      <trkpt lat="46.098562" lon="7.955519">
        <time>1970-01-01T00:00:00+00:00</time>
        <ele>1654.0</ele>
      </trkpt>
      <trkpt lat="46.098397" lon="7.95568">
        <time>1970-01-01T00:00:00+00:00</time>
        <ele>1653.0</ele>
      </trkpt>
      <trkpt lat="46.098515" lon="7.955335">
        <time>1970-01-01T00:00:00+00:00</time>
        <ele>1652.0</ele>
      </trkpt>
      <trkpt lat="46.098564" lon="7.955461">
        <time>1970-01-01T00:00:00+00:00</time>
        <ele>1653.0</ele>
      </trkpt>
      <trkpt lat="46.098121" lon="7.956309">
        <time>1970-01-01T00:00:00+00:00</time>
        <ele>1655.0</ele>
      </trkpt>
      <trkpt lat="46.097818" lon="7.956752">
        <time>1970-01-01T00:00:00+00:00</time>
        <ele>1657.0</ele>
      </trkpt>
      <trkpt lat="46.097562" lon="7.956966">
        <time>1970-01-01T00:00:00+00:00</time>
        <ele>1658.0</ele>
      </trkpt>
      <trkpt lat="46.096434" lon="7.957438">
        <time>1970-01-01T00:00:00+00:00</time>
        <ele>1665.0</ele>
      </trkpt>
      <trkpt lat="46.095444" lon="7.957374">
        <time>1970-01-01T00:00:00+00:00</time>
        <ele>1669.0</ele>
      </trkpt>
      <trkpt lat="46.094926" lon="7.957726">
        <time>1970-01-01T00:00:00+00:00</time>
        <ele>1671.0</ele>
      </trkpt>
      <trkpt lat="46.094632" lon="7.95764">
        <time>1970-01-01T00:00:00+00:00</time>
        <ele>1674.0</ele>
      </trkpt>
      <trkpt lat="46.094396" lon="7.957991">
        <time>1970-01-01T00:00:00+00:00</time>
        <ele>1674.0</ele>
      </trkpt>
      <trkpt lat="46.094144" lon="7.958127">
        <time>1970-01-01T00:00:00+00:00</time>
        <ele>1674.0</ele>
      </trkpt>
      <trkpt lat="46.094309" lon="7.958416">
        <time>1970-01-01T00:00:00+00:00</time>
        <ele>1675.0</ele>
      </trkpt>
      <trkpt lat="46.094288" lon="7.958676">
        <time>1970-01-01T00:00:00+00:00</time>
        <ele>1674.0</ele>
      </trkpt>
      <trkpt lat="46.094178" lon="7.958695">
        <time>1970-01-01T00:00:00+00:00</time>
        <ele>1675.0</ele>
      </trkpt>
      <trkpt lat="46.094108" lon="7.958587">
        <time>1970-01-01T00:00:00+00:00</time>
        <ele>1675.0</ele>
      </trkpt>
      <trkpt lat="46.094047" lon="7.958751">
        <time>1970-01-01T00:00:00+00:00</time>
        <ele>1675.0</ele>
      </trkpt>
      <trkpt lat="46.094533" lon="7.958801">
        <time>1970-01-01T00:00:00+00:00</time>
        <ele>1673.0</ele>
      </trkpt>
      <trkpt lat="46.095016" lon="7.959957">
        <time>1970-01-01T00:00:00+00:00</time>
        <ele>1673.0</ele>
      </trkpt>
      <trkpt lat="46.09529" lon="7.960067">
        <time>1970-01-01T00:00:00+00:00</time>
        <ele>1674.0</ele>
      </trkpt>
      <trkpt lat="46.095594" lon="7.960641">
        <time>1970-01-01T00:00:00+00:00</time>
        <ele>1686.0</ele>
      </trkpt>
      <trkpt lat="46.095527" lon="7.960465">
        <time>1970-01-01T00:00:00+00:00</time>
        <ele>1682.0</ele>
      </trkpt>
      <trkpt lat="46.095747" lon="7.96055">
        <time>1970-01-01T00:00:00+00:00</time>
        <ele>1686.0</ele>
      </trkpt>
      <trkpt lat="46.095923" lon="7.960452">
        <time>1970-01-01T00:00:00+00:00</time>
        <ele>1684.0</ele>
      </trkpt>
      <trkpt lat="46.096205" lon="7.960673">
        <time>1970-01-01T00:00:00+00:00</time>
        <ele>1690.0</ele>
      </trkpt>
      <trkpt lat="46.096522" lon="7.96072">
        <time>1970-01-01T00:00:00+00:00</time>
        <ele>1696.0</ele>
      </trkpt>
      <trkpt lat="46.096767" lon="7.96087">
        <time>1970-01-01T00:00:00+00:00</time>
        <ele>1707.0</ele>
      </trkpt>
      <trkpt lat="46.09655" lon="7.961395">
        <time>1970-01-01T00:00:00+00:00</time>
        <ele>1722.0</ele>
      </trkpt>
      <trkpt lat="46.095829" lon="7.961569">
        <time>1970-01-01T00:00:00+00:00</time>
        <ele>1714.0</ele>
      </trkpt>
      <trkpt lat="46.09556" lon="7.961538">
        <time>1970-01-01T00:00:00+00:00</time>
        <ele>1711.0</ele>
      </trkpt>
      <trkpt lat="46.095548" lon="7.961636">
        <time>1970-01-01T00:00:00+00:00</time>
        <ele>1716.0</ele>
      </trkpt>
      <trkpt lat="46.095208" lon="7.961871">
        <time>1970-01-01T00:00:00+00:00</time>
        <ele>1730.0</ele>
      </trkpt>
      <trkpt lat="46.095698" lon="7.961898">
        <time>1970-01-01T00:00:00+00:00</time>
        <ele>1732.0</ele>
      </trkpt>
      <trkpt lat="46.096101" lon="7.96203">
        <time>1970-01-01T00:00:00+00:00</time>
        <ele>1742.0</ele>
      </trkpt>
      <trkpt lat="46.096383" lon="7.962232">
        <time>1970-01-01T00:00:00+00:00</time>
        <ele>1758.0</ele>
      </trkpt>
      <trkpt lat="46.096716" lon="7.962208">
        <time>1970-01-01T00:00:00+00:00</time>
        <ele>1763.0</ele>
      </trkpt>
      <trkpt lat="46.097013" lon="7.96258">
        <time>1970-01-01T00:00:00+00:00</time>
        <ele>1785.0</ele>
      </trkpt>
      <trkpt lat="46.096862" lon="7.962804">
        <time>1970-01-01T00:00:00+00:00</time>
        <ele>1800.0</ele>
      </trkpt>
      <trkpt lat="46.097716" lon="7.963567">
        <time>1970-01-01T00:00:00+00:00</time>
        <ele>1826.0</ele>
      </trkpt>
      <trkpt lat="46.098638" lon="7.963134">
        <time>1970-01-01T00:00:00+00:00</time>
        <ele>1836.0</ele>
      </trkpt>
      <trkpt lat="46.098031" lon="7.964016">
        <time>1970-01-01T00:00:00+00:00</time>
        <ele>1853.0</ele>
      </trkpt>
      <trkpt lat="46.097558" lon="7.964443">
        <time>1970-01-01T00:00:00+00:00</time>
        <ele>1864.0</ele>
      </trkpt>
      <trkpt lat="46.096784" lon="7.964528">
        <time>1970-01-01T00:00:00+00:00</time>
        <ele>1880.0</ele>
      </trkpt>
      <trkpt lat="46.096646" lon="7.964417">
        <time>1970-01-01T00:00:00+00:00</time>
        <ele>1880.0</ele>
      </trkpt>
      <trkpt lat="46.096719" lon="7.964652">
        <time>1970-01-01T00:00:00+00:00</time>
        <ele>1885.0</ele>
      </trkpt>
      <trkpt lat="46.096894" lon="7.964849">
        <time>1970-01-01T00:00:00+00:00</time>
        <ele>1892.0</ele>
      </trkpt>
      <trkpt lat="46.0973" lon="7.964904">
        <time>1970-01-01T00:00:00+00:00</time>
        <ele>1888.0</ele>
      </trkpt>
      <trkpt lat="46.097447" lon="7.965052">
        <time>1970-01-01T00:00:00+00:00</time>
        <ele>1899.0</ele>
      </trkpt>
      <trkpt lat="46.097605" lon="7.965056">
        <time>1970-01-01T00:00:00+00:00</time>
        <ele>1900.0</ele>
      </trkpt>
      <trkpt lat="46.098089" lon="7.964734">
        <time>1970-01-01T00:00:00+00:00</time>
        <ele>1885.0</ele>
      </trkpt>
      <trkpt lat="46.098757" lon="7.964762">
        <time>1970-01-01T00:00:00+00:00</time>
        <ele>1920.0</ele>
      </trkpt>
      <trkpt lat="46.098814" lon="7.964827">
        <time>1970-01-01T00:00:00+00:00</time>
        <ele>1930.0</ele>
      </trkpt>
      <trkpt lat="46.098725" lon="7.964943">
        <time>1970-01-01T00:00:00+00:00</time>
        <ele>1933.0</ele>
      </trkpt>
      <trkpt lat="46.098959" lon="7.96519">
        <time>1970-01-01T00:00:00+00:00</time>
        <ele>1969.0</ele>
      </trkpt>
      <trkpt lat="46.098842" lon="7.965207">
        <time>1970-01-01T00:00:00+00:00</time>
        <ele>1965.0</ele>
      </trkpt>
      <trkpt lat="46.09859" lon="7.965502">
        <time>1970-01-01T00:00:00+00:00</time>
        <ele>1965.0</ele>
      </trkpt>
      <trkpt lat="46.099153" lon="7.965836">
        <time>1970-01-01T00:00:00+00:00</time>
        <ele>2003.0</ele>
      </trkpt>
      <trkpt lat="46.099596" lon="7.966805">
        <time>1970-01-01T00:00:00+00:00</time>
        <ele>2033.0</ele>
      </trkpt>
      <trkpt lat="46.099968" lon="7.967201">
        <time>1970-01-01T00:00:00+00:00</time>
        <ele>2043.0</ele>
      </trkpt>
      <trkpt lat="46.100272" lon="7.968132">
        <time>1970-01-01T00:00:00+00:00</time>
        <ele>2055.0</ele>
      </trkpt>
      <trkpt lat="46.100602" lon="7.968517">
        <time>1970-01-01T00:00:00+00:00</time>
        <ele>2057.0</ele>
      </trkpt>
      <trkpt lat="46.100689" lon="7.96886">
        <time>1970-01-01T00:00:00+00:00</time>
        <ele>2062.0</ele>
      </trkpt>
      <trkpt lat="46.10076" lon="7.969838">
        <time>1970-01-01T00:00:00+00:00</time>
        <ele>2069.0</ele>
      </trkpt>
      <trkpt lat="46.100667" lon="7.970227">
        <time>1970-01-01T00:00:00+00:00</time>
        <ele>2070.0</ele>
      </trkpt>
      <trkpt lat="46.100798" lon="7.97049">
        <time>1970-01-01T00:00:00+00:00</time>
        <ele>2075.0</ele>
      </trkpt>
      <trkpt lat="46.100677" lon="7.970923">
        <time>1970-01-01T00:00:00+00:00</time>
        <ele>2077.0</ele>
      </trkpt>
      <trkpt lat="46.100728" lon="7.971718">
        <time>1970-01-01T00:00:00+00:00</time>
        <ele>2086.0</ele>
      </trkpt>
      <trkpt lat="46.100592" lon="7.972285">
        <time>1970-01-01T00:00:00+00:00</time>
        <ele>2094.0</ele>
      </trkpt>
      <trkpt lat="46.100688" lon="7.973048">
        <time>1970-01-01T00:00:00+00:00</time>
        <ele>2102.0</ele>
      </trkpt>
      <trkpt lat="46.100623" lon="7.973944">
        <time>1970-01-01T00:00:00+00:00</time>
        <ele>2109.0</ele>
      </trkpt>
      <trkpt lat="46.100695" lon="7.974912">
        <time>1970-01-01T00:00:00+00:00</time>
        <ele>2118.0</ele>
      </trkpt>
      <trkpt lat="46.100597" lon="7.976437">
        <time>1970-01-01T00:00:00+00:00</time>
        <ele>2132.0</ele>
      </trkpt>
      <trkpt lat="46.10054" lon="7.976714">
        <time>1970-01-01T00:00:00+00:00</time>
        <ele>2135.0</ele>
      </trkpt>
      <trkpt lat="46.100423" lon="7.976798">
        <time>1970-01-01T00:00:00+00:00</time>
        <ele>2137.0</ele>
      </trkpt>
      <trkpt lat="46.100879" lon="7.97838">
        <time>1970-01-01T00:00:00+00:00</time>
        <ele>2155.0</ele>
      </trkpt>
      <trkpt lat="46.10096" lon="7.979349">
        <time>1970-01-01T00:00:00+00:00</time>
        <ele>2158.0</ele>
      </trkpt>
      <trkpt lat="46.101121" lon="7.979884">
        <time>1970-01-01T00:00:00+00:00</time>
        <ele>2166.0</ele>
      </trkpt>
      <trkpt lat="46.101014" lon="7.982">
        <time>1970-01-01T00:00:00+00:00</time>
        <ele>2172.0</ele>
      </trkpt>
      <trkpt lat="46.101222" lon="7.982467">
        <time>1970-01-01T00:00:00+00:00</time>
        <ele>2181.0</ele>
      </trkpt>
      <trkpt lat="46.101327" lon="7.983073">
        <time>1970-01-01T00:00:00+00:00</time>
        <ele>2187.0</ele>
      </trkpt>
      <trkpt lat="46.10115" lon="7.983989">
        <time>1970-01-01T00:00:00+00:00</time>
        <ele>2185.0</ele>
      </trkpt>
      <trkpt lat="46.10117" lon="7.984574">
        <time>1970-01-01T00:00:00+00:00</time>
        <ele>2190.0</ele>
      </trkpt>
      <trkpt lat="46.100948" lon="7.98495">
        <time>1970-01-01T00:00:00+00:00</time>
        <ele>2190.0</ele>
      </trkpt>
      <trkpt lat="46.101149" lon="7.985379">
        <time>1970-01-01T00:00:00+00:00</time>
        <ele>2194.0</ele>
      </trkpt>
      <trkpt lat="46.101128" lon="7.98584">
        <time>1970-01-01T00:00:00+00:00</time>
        <ele>2198.0</ele>
      </trkpt>
      <trkpt lat="46.101272" lon="7.986554">
        <time>1970-01-01T00:00:00+00:00</time>
        <ele>2206.0</ele>
      </trkpt>
      <trkpt lat="46.100926" lon="7.987285">
        <time>1970-01-01T00:00:00+00:00</time>
        <ele>2212.0</ele>
      </trkpt>
      <trkpt lat="46.100834" lon="7.987872">
        <time>1970-01-01T00:00:00+00:00</time>
        <ele>2218.0</ele>
      </trkpt>
      <trkpt lat="46.100904" lon="7.988375">
        <time>1970-01-01T00:00:00+00:00</time>
        <ele>2226.0</ele>
      </trkpt>
      <trkpt lat="46.100759" lon="7.988624">
        <time>1970-01-01T00:00:00+00:00</time>
        <ele>2227.0</ele>
      </trkpt>
      <trkpt lat="46.100601" lon="7.988651">
        <time>1970-01-01T00:00:00+00:00</time>
        <ele>2227.0</ele>
      </trkpt>
      <trkpt lat="46.100611" lon="7.98886">
        <time>1970-01-01T00:00:00+00:00</time>
        <ele>2230.0</ele>
      </trkpt>
      <trkpt lat="46.101072" lon="7.989889">
        <time>1970-01-01T00:00:00+00:00</time>
        <ele>2248.0</ele>
      </trkpt>
      <trkpt lat="46.100875" lon="7.990289">
        <time>1970-01-01T00:00:00+00:00</time>
        <ele>2248.0</ele>
      </trkpt>
      <trkpt lat="46.100977" lon="7.990789">
        <time>1970-01-01T00:00:00+00:00</time>
        <ele>2256.0</ele>
      </trkpt>
      <trkpt lat="46.100745" lon="7.991606">
        <time>1970-01-01T00:00:00+00:00</time>
        <ele>2267.0</ele>
      </trkpt>
      <trkpt lat="46.100594" lon="7.993393">
        <time>1970-01-01T00:00:00+00:00</time>
        <ele>2299.0</ele>
      </trkpt>
      <trkpt lat="46.100209" lon="7.994281">
        <time>1970-01-01T00:00:00+00:00</time>
        <ele>2310.0</ele>
      </trkpt>
      <trkpt lat="46.099894" lon="7.995859">
        <time>1970-01-01T00:00:00+00:00</time>
        <ele>2337.0</ele>
      </trkpt>
      <trkpt lat="46.09962" lon="7.996538">
        <time>1970-01-01T00:00:00+00:00</time>
        <ele>2347.0</ele>
      </trkpt>
      <trkpt lat="46.099521" lon="7.997112">
        <time>1970-01-01T00:00:00+00:00</time>
        <ele>2358.0</ele>
      </trkpt>
      <trkpt lat="46.099538" lon="7.997721">
        <time>1970-01-01T00:00:00+00:00</time>
        <ele>2371.0</ele>
      </trkpt>
      <trkpt lat="46.099981" lon="7.997551">
        <time>1970-01-01T00:00:00+00:00</time>
        <ele>2377.0</ele>
      </trkpt>
      <trkpt lat="46.100328" lon="7.997545">
        <time>1970-01-01T00:00:00+00:00</time>
        <ele>2384.0</ele>
      </trkpt>
      <trkpt lat="46.100318" lon="7.997622">
        <time>1970-01-01T00:00:00+00:00</time>
        <ele>2386.0</ele>
      </trkpt>
      <trkpt lat="46.100187" lon="7.997855">
        <time>1970-01-01T00:00:00+00:00</time>
        <ele>2389.0</ele>
      </trkpt>
      <trkpt lat="46.100112" lon="7.998409">
        <time>1970-01-01T00:00:00+00:00</time>
        <ele>2400.0</ele>
      </trkpt>
      <trkpt lat="46.099724" lon="7.998935">
        <time>1970-01-01T00:00:00+00:00</time>
        <ele>2402.0</ele>
      </trkpt>
      <trkpt lat="46.099705" lon="7.999562">
        <time>1970-01-01T00:00:00+00:00</time>
        <ele>2459.0</ele>
      </trkpt>
      <trkpt lat="46.099436" lon="7.999836">
        <time>1970-01-01T00:00:00+00:00</time>
        <ele>2466.0</ele>
      </trkpt>
      <trkpt lat="46.099251" lon="8.000512">
        <time>1970-01-01T00:00:00+00:00</time>
        <ele>2485.0</ele>
      </trkpt>
      <trkpt lat="46.099113" lon="8.000533">
        <time>1970-01-01T00:00:00+00:00</time>
        <ele>2481.0</ele>
      </trkpt>
      <trkpt lat="46.09902" lon="8.00067">
        <time>1970-01-01T00:00:00+00:00</time>
        <ele>2487.0</ele>
      </trkpt>
      <trkpt lat="46.098761" lon="8.001382">
        <time>1970-01-01T00:00:00+00:00</time>
        <ele>2512.0</ele>
      </trkpt>
      <trkpt lat="46.098612" lon="8.001429">
        <time>1970-01-01T00:00:00+00:00</time>
        <ele>2509.0</ele>
      </trkpt>
      <trkpt lat="46.098434" lon="8.00191">
        <time>1970-01-01T00:00:00+00:00</time>
        <ele>2517.0</ele>
      </trkpt>
      <trkpt lat="46.098558" lon="8.001916">
        <time>1970-01-01T00:00:00+00:00</time>
        <ele>2521.0</ele>
      </trkpt>
      <trkpt lat="46.098605" lon="8.00171">
        <time>1970-01-01T00:00:00+00:00</time>
        <ele>2517.0</ele>
      </trkpt>
      <trkpt lat="46.098972" lon="8.001675">
        <time>1970-01-01T00:00:00+00:00</time>
        <ele>2528.0</ele>
      </trkpt>
      <trkpt lat="46.099194" lon="8.001466">
        <time>1970-01-01T00:00:00+00:00</time>
        <ele>2525.0</ele>
      </trkpt>
      <trkpt lat="46.099413" lon="8.001445">
        <time>1970-01-01T00:00:00+00:00</time>
        <ele>2531.0</ele>
      </trkpt>
      <trkpt lat="46.099202" lon="8.001826">
        <time>1970-01-01T00:00:00+00:00</time>
        <ele>2537.0</ele>
      </trkpt>
      <trkpt lat="46.100085" lon="8.001638">
        <time>1970-01-01T00:00:00+00:00</time>
        <ele>2553.0</ele>
      </trkpt>
      <trkpt lat="46.100404" lon="8.001763">
        <time>1970-01-01T00:00:00+00:00</time>
        <ele>2560.0</ele>
      </trkpt>
      <trkpt lat="46.100718" lon="8.001589">
        <time>1970-01-01T00:00:00+00:00</time>
        <ele>2563.0</ele>
      </trkpt>
      <trkpt lat="46.100889" lon="8.002037">
        <time>1970-01-01T00:00:00+00:00</time>
        <ele>2576.0</ele>
      </trkpt>
      <trkpt lat="46.100787" lon="8.002197">
        <time>1970-01-01T00:00:00+00:00</time>
        <ele>2579.0</ele>
      </trkpt>
      <trkpt lat="46.100745" lon="8.002601">
        <time>1970-01-01T00:00:00+00:00</time>
        <ele>2592.0</ele>
      </trkpt>
      <trkpt lat="46.101065" lon="8.002739">
        <time>1970-01-01T00:00:00+00:00</time>
        <ele>2602.0</ele>
      </trkpt>
      <trkpt lat="46.101103" lon="8.003096">
        <time>1970-01-01T00:00:00+00:00</time>
        <ele>2617.0</ele>
      </trkpt>
      <trkpt lat="46.101309" lon="8.003087">
        <time>1970-01-01T00:00:00+00:00</time>
        <ele>2620.0</ele>
      </trkpt>
      <trkpt lat="46.101407" lon="8.003169">
        <time>1970-01-01T00:00:00+00:00</time>
        <ele>2624.0</ele>
      </trkpt>
      <trkpt lat="46.101442" lon="8.003438">
        <time>1970-01-01T00:00:00+00:00</time>
        <ele>2631.0</ele>
      </trkpt>
      <trkpt lat="46.101669" lon="8.003382">
        <time>1970-01-01T00:00:00+00:00</time>
        <ele>2633.0</ele>
      </trkpt>
      <trkpt lat="46.101686" lon="8.003545">
        <time>1970-01-01T00:00:00+00:00</time>
        <ele>2637.0</ele>
      </trkpt>
      <trkpt lat="46.101809" lon="8.003601">
        <time>1970-01-01T00:00:00+00:00</time>
        <ele>2642.0</ele>
      </trkpt>
      <trkpt lat="46.10181" lon="8.003797">
        <time>1970-01-01T00:00:00+00:00</time>
        <ele>2648.0</ele>
      </trkpt>
      <trkpt lat="46.102065" lon="8.003943">
        <time>1970-01-01T00:00:00+00:00</time>
        <ele>2659.0</ele>
      </trkpt>
      <trkpt lat="46.102025" lon="8.004102">
        <time>1970-01-01T00:00:00+00:00</time>
        <ele>2662.0</ele>
      </trkpt>
      <trkpt lat="46.102133" lon="8.004209">
        <time>1970-01-01T00:00:00+00:00</time>
        <ele>2667.0</ele>
      </trkpt>
      <trkpt lat="46.102471" lon="8.004068">
        <time>1970-01-01T00:00:00+00:00</time>
        <ele>2673.0</ele>
      </trkpt>
      <trkpt lat="46.102644" lon="8.004371">
        <time>1970-01-01T00:00:00+00:00</time>
        <ele>2685.0</ele>
      </trkpt>
      <trkpt lat="46.102873" lon="8.004132">
        <time>1970-01-01T00:00:00+00:00</time>
        <ele>2689.0</ele>
      </trkpt>
      <trkpt lat="46.102966" lon="8.004421">
        <time>1970-01-01T00:00:00+00:00</time>
        <ele>2698.0</ele>
      </trkpt>
      <trkpt lat="46.103107" lon="8.004387">
        <time>1970-01-01T00:00:00+00:00</time>
        <ele>2705.0</ele>
      </trkpt>
      <trkpt lat="46.103433" lon="8.003824">
        <time>1970-01-01T00:00:00+00:00</time>
        <ele>2718.0</ele>
      </trkpt>
      <trkpt lat="46.103533" lon="8.003445">
        <time>1970-01-01T00:00:00+00:00</time>
        <ele>2722.0</ele>
      </trkpt>
      <trkpt lat="46.103574" lon="8.003575">
        <time>1970-01-01T00:00:00+00:00</time>
        <ele>2725.0</ele>
      </trkpt>
      <trkpt lat="46.103849" lon="8.003455">
        <time>1970-01-01T00:00:00+00:00</time>
        <ele>2739.0</ele>
      </trkpt>
      <trkpt lat="46.103982" lon="8.003609">
        <time>1970-01-01T00:00:00+00:00</time>
        <ele>2746.0</ele>
      </trkpt>
      <trkpt lat="46.104215" lon="8.003565">
        <time>1970-01-01T00:00:00+00:00</time>
        <ele>2755.0</ele>
      </trkpt>
      <trkpt lat="46.104261" lon="8.003773">
        <time>1970-01-01T00:00:00+00:00</time>
        <ele>2761.0</ele>
      </trkpt>
      <trkpt lat="46.104496" lon="8.003742">
        <time>1970-01-01T00:00:00+00:00</time>
        <ele>2767.0</ele>
      </trkpt>
      <trkpt lat="46.104546" lon="8.004038">
        <time>1970-01-01T00:00:00+00:00</time>
        <ele>2773.0</ele>
      </trkpt>
      <trkpt lat="46.104677" lon="8.00402">
        <time>1970-01-01T00:00:00+00:00</time>
        <ele>2778.0</ele>
      </trkpt>
      <trkpt lat="46.104775" lon="8.004184">
        <time>1970-01-01T00:00:00+00:00</time>
        <ele>2783.0</ele>
      </trkpt>
      <trkpt lat="46.105087" lon="8.004215">
        <time>1970-01-01T00:00:00+00:00</time>
        <ele>2792.0</ele>
      </trkpt>
      <trkpt lat="46.105417" lon="8.004519">
        <time>1970-01-01T00:00:00+00:00</time>
        <ele>2804.0</ele>
      </trkpt>
      <trkpt lat="46.105763" lon="8.005501">
        <time>1970-01-01T00:00:00+00:00</time>
        <ele>2825.0</ele>
      </trkpt>
      <trkpt lat="46.106666" lon="8.006827">
        <time>1970-01-01T00:00:00+00:00</time>
        <ele>2860.0</ele>
      </trkpt>
      <trkpt lat="46.106922" lon="8.007516">
        <time>1970-01-01T00:00:00+00:00</time>
        <ele>2879.0</ele>
      </trkpt>
      <trkpt lat="46.106902" lon="8.00793">
        <time>1970-01-01T00:00:00+00:00</time>
        <ele>2885.0</ele>
      </trkpt>
      <trkpt lat="46.107033" lon="8.007832">
        <time>1970-01-01T00:00:00+00:00</time>
        <ele>2886.0</ele>
      </trkpt>
      <trkpt lat="46.106997" lon="8.007989">
        <time>1970-01-01T00:00:00+00:00</time>
        <ele>2887.0</ele>
      </trkpt>
      <trkpt lat="46.107362" lon="8.008075">
        <time>1970-01-01T00:00:00+00:00</time>
        <ele>2893.0</ele>
      </trkpt>
      <trkpt lat="46.107606" lon="8.007879">
        <time>1970-01-01T00:00:00+00:00</time>
        <ele>2895.0</ele>
      </trkpt>
      <trkpt lat="46.107581" lon="8.007657">
        <time>1970-01-01T00:00:00+00:00</time>
        <ele>2893.0</ele>
      </trkpt>
      <trkpt lat="46.107674" lon="8.007698">
        <time>1970-01-01T00:00:00+00:00</time>
        <ele>2894.0</ele>
      </trkpt>
      <trkpt lat="46.107246" lon="8.008184">
        <time>1970-01-01T00:00:00+00:00</time>
        <ele>2893.0</ele>
      </trkpt>
      <trkpt lat="46.107392" lon="8.007988">
        <time>1970-01-01T00:00:00+00:00</time>
        <ele>2893.0</ele>
      </trkpt>
      <trkpt lat="46.107337" lon="8.007971">
        <time>1970-01-01T00:00:00+00:00</time>
        <ele>2892.0</ele>
      </trkpt>
      <trkpt lat="46.107323" lon="8.00846">
        <time>1970-01-01T00:00:00+00:00</time>
        <ele>2897.0</ele>
      </trkpt>
      <trkpt lat="46.108105" lon="8.009621">
        <time>1970-01-01T00:00:00+00:00</time>
        <ele>2918.0</ele>
      </trkpt>
      <trkpt lat="46.108447" lon="8.009819">
        <time>1970-01-01T00:00:00+00:00</time>
        <ele>2926.0</ele>
      </trkpt>
      <trkpt lat="46.108826" lon="8.010239">
        <time>1970-01-01T00:00:00+00:00</time>
        <ele>2941.0</ele>
      </trkpt>
      <trkpt lat="46.109049" lon="8.010723">
        <time>1970-01-01T00:00:00+00:00</time>
        <ele>2953.0</ele>
      </trkpt>
      <trkpt lat="46.1093" lon="8.010887">
        <time>1970-01-01T00:00:00+00:00</time>
        <ele>2962.0</ele>
      </trkpt>
      <trkpt lat="46.109504" lon="8.011287">
        <time>1970-01-01T00:00:00+00:00</time>
        <ele>2974.0</ele>
      </trkpt>
      <trkpt lat="46.110001" lon="8.011888">
        <time>1970-01-01T00:00:00+00:00</time>
        <ele>3008.0</ele>
      </trkpt>
      <trkpt lat="46.110078" lon="8.012281">
        <time>1970-01-01T00:00:00+00:00</time>
        <ele>3017.0</ele>
      </trkpt>
      <trkpt lat="46.110312" lon="8.012793">
        <time>1970-01-01T00:00:00+00:00</time>
        <ele>3030.0</ele>
      </trkpt>
      <trkpt lat="46.110547" lon="8.013951">
        <time>1970-01-01T00:00:00+00:00</time>
        <ele>3048.0</ele>
      </trkpt>
      <trkpt lat="46.110796" lon="8.014428">
        <time>1970-01-01T00:00:00+00:00</time>
        <ele>3056.0</ele>
      </trkpt>
      <trkpt lat="46.110882" lon="8.014923">
        <time>1970-01-01T00:00:00+00:00</time>
        <ele>3065.0</ele>
      </trkpt>
      <trkpt lat="46.110988" lon="8.014967">
        <time>1970-01-01T00:00:00+00:00</time>
        <ele>3063.0</ele>
      </trkpt>
      <trkpt lat="46.110979" lon="8.015239">
        <time>1970-01-01T00:00:00+00:00</time>
        <ele>3070.0</ele>
      </trkpt>
      <trkpt lat="46.111227" lon="8.015821">
        <time>1970-01-01T00:00:00+00:00</time>
        <ele>3080.0</ele>
      </trkpt>
      <trkpt lat="46.111275" lon="8.016297">
        <time>1970-01-01T00:00:00+00:00</time>
        <ele>3092.0</ele>
      </trkpt>
      <trkpt lat="46.111397" lon="8.016443">
        <time>1970-01-01T00:00:00+00:00</time>
        <ele>3097.0</ele>
      </trkpt>
      <trkpt lat="46.111498" lon="8.017011">
        <time>1970-01-01T00:00:00+00:00</time>
        <ele>3115.0</ele>
      </trkpt>
      <trkpt lat="46.111948" lon="8.017797">
        <time>1970-01-01T00:00:00+00:00</time>
        <ele>3135.0</ele>
      </trkpt>
      <trkpt lat="46.111863" lon="8.018018">
        <time>1970-01-01T00:00:00+00:00</time>
        <ele>3139.0</ele>
      </trkpt>
      <trkpt lat="46.112154" lon="8.019156">
        <time>1970-01-01T00:00:00+00:00</time>
        <ele>3177.0</ele>
      </trkpt>
      <trkpt lat="46.112608" lon="8.020126">
        <time>1970-01-01T00:00:00+00:00</time>
        <ele>3207.0</ele>
      </trkpt>
      <trkpt lat="46.112865" lon="8.021036">
        <time>1970-01-01T00:00:00+00:00</time>
        <ele>3234.0</ele>
      </trkpt>
      <trkpt lat="46.113087" lon="8.02135">
        <time>1970-01-01T00:00:00+00:00</time>
        <ele>3231.0</ele>
      </trkpt>
      <trkpt lat="46.113061" lon="8.021463">
        <time>1970-01-01T00:00:00+00:00</time>
        <ele>3233.0</ele>
      </trkpt>
      <trkpt lat="46.113365" lon="8.021828">
        <time>1970-01-01T00:00:00+00:00</time>
        <ele>3226.0</ele>
      </trkpt>
      <trkpt lat="46.113408" lon="8.022075">
        <time>1970-01-01T00:00:00+00:00</time>
        <ele>3214.0</ele>
      </trkpt>
      <trkpt lat="46.113937" lon="8.021749">
        <time>1970-01-01T00:00:00+00:00</time>
        <ele>3233.0</ele>
      </trkpt>
      <trkpt lat="46.11404" lon="8.021794">
        <time>1970-01-01T00:00:00+00:00</time>
        <ele>3234.0</ele>
      </trkpt>
      <trkpt lat="46.114099" lon="8.021578">
        <time>1970-01-01T00:00:00+00:00</time>
        <ele>3241.0</ele>
      </trkpt>
      <trkpt lat="46.114341" lon="8.021311">
        <time>1970-01-01T00:00:00+00:00</time>
        <ele>3255.0</ele>
      </trkpt>
      <trkpt lat="46.114466" lon="8.020907">
        <time>1970-01-01T00:00:00+00:00</time>
        <ele>3261.0</ele>
      </trkpt>
      <trkpt lat="46.11462" lon="8.020813">
        <time>1970-01-01T00:00:00+00:00</time>
        <ele>3262.0</ele>
      </trkpt>
      <trkpt lat="46.115106" lon="8.019459">
        <time>1970-01-01T00:00:00+00:00</time>
        <ele>3262.0</ele>
      </trkpt>
      <trkpt lat="46.115327" lon="8.019296">
        <time>1970-01-01T00:00:00+00:00</time>
        <ele>3265.0</ele>
      </trkpt>
      <trkpt lat="46.115361" lon="8.019039">
        <time>1970-01-01T00:00:00+00:00</time>
        <ele>3271.0</ele>
      </trkpt>
      <trkpt lat="46.115478" lon="8.018914">
        <time>1970-01-01T00:00:00+00:00</time>
        <ele>3276.0</ele>
      </trkpt>
      <trkpt lat="46.115587" lon="8.019004">
        <time>1970-01-01T00:00:00+00:00</time>
        <ele>3275.0</ele>
      </trkpt>
      <trkpt lat="46.115833" lon="8.01866">
        <time>1970-01-01T00:00:00+00:00</time>
        <ele>3291.0</ele>
      </trkpt>
      <trkpt lat="46.116037" lon="8.018603">
        <time>1970-01-01T00:00:00+00:00</time>
        <ele>3296.0</ele>
      </trkpt>
      <trkpt lat="46.11613" lon="8.018358">
        <time>1970-01-01T00:00:00+00:00</time>
        <ele>3306.0</ele>
      </trkpt>
      <trkpt lat="46.116386" lon="8.018633">
        <time>1970-01-01T00:00:00+00:00</time>
        <ele>3300.0</ele>
      </trkpt>
      <trkpt lat="46.116657" lon="8.01861">
        <time>1970-01-01T00:00:00+00:00</time>
        <ele>3306.0</ele>
      </trkpt>
      <trkpt lat="46.116634" lon="8.018691">
        <time>1970-01-01T00:00:00+00:00</time>
        <ele>3303.0</ele>
      </trkpt>
      <trkpt lat="46.116734" lon="8.018614">
        <time>1970-01-01T00:00:00+00:00</time>
        <ele>3307.0</ele>
      </trkpt>
      <trkpt lat="46.116765" lon="8.01895">
        <time>1970-01-01T00:00:00+00:00</time>
        <ele>3296.0</ele>
      </trkpt>
      <trkpt lat="46.11694" lon="8.018869">
        <time>1970-01-01T00:00:00+00:00</time>
        <ele>3301.0</ele>
      </trkpt>
      <trkpt lat="46.117185" lon="8.018969">
        <time>1970-01-01T00:00:00+00:00</time>
        <ele>3305.0</ele>
      </trkpt>
      <trkpt lat="46.11735" lon="8.018923">
        <time>1970-01-01T00:00:00+00:00</time>
        <ele>3311.0</ele>
      </trkpt>
      <trkpt lat="46.117354" lon="8.019003">
        <time>1970-01-01T00:00:00+00:00</time>
        <ele>3310.0</ele>
      </trkpt>
      <trkpt lat="46.117762" lon="8.018799">
        <time>1970-01-01T00:00:00+00:00</time>
        <ele>3336.0</ele>
      </trkpt>
      <trkpt lat="46.117926" lon="8.018816">
        <time>1970-01-01T00:00:00+00:00</time>
        <ele>3343.0</ele>
      </trkpt>
      <trkpt lat="46.118017" lon="8.018904">
        <time>1970-01-01T00:00:00+00:00</time>
        <ele>3348.0</ele>
      </trkpt>
      <trkpt lat="46.118396" lon="8.018933">
        <time>1970-01-01T00:00:00+00:00</time>
        <ele>3370.0</ele>
      </trkpt>
      <trkpt lat="46.118467" lon="8.019033">
        <time>1970-01-01T00:00:00+00:00</time>
        <ele>3372.0</ele>
      </trkpt>
      <trkpt lat="46.118583" lon="8.01894">
        <time>1970-01-01T00:00:00+00:00</time>
        <ele>3376.0</ele>
      </trkpt>
      <trkpt lat="46.118766" lon="8.019058">
        <time>1970-01-01T00:00:00+00:00</time>
        <ele>3382.0</ele>
      </trkpt>
      <trkpt lat="46.118758" lon="8.018861">
        <time>1970-01-01T00:00:00+00:00</time>
        <ele>3385.0</ele>
      </trkpt>
      <trkpt lat="46.11887" lon="8.018891">
        <time>1970-01-01T00:00:00+00:00</time>
        <ele>3390.0</ele>
      </trkpt>
      <trkpt lat="46.119023" lon="8.018646">
        <time>1970-01-01T00:00:00+00:00</time>
        <ele>3402.0</ele>
      </trkpt>
      <trkpt lat="46.119105" lon="8.018805">
        <time>1970-01-01T00:00:00+00:00</time>
        <ele>3403.0</ele>
      </trkpt>
      <trkpt lat="46.119236" lon="8.018824">
        <time>1970-01-01T00:00:00+00:00</time>
        <ele>3411.0</ele>
      </trkpt>
      <trkpt lat="46.119309" lon="8.018712">
        <time>1970-01-01T00:00:00+00:00</time>
        <ele>3418.0</ele>
      </trkpt>
      <trkpt lat="46.11973" lon="8.01897">
        <time>1970-01-01T00:00:00+00:00</time>
        <ele>3437.0</ele>
      </trkpt>
      <trkpt lat="46.119988" lon="8.018865">
        <time>1970-01-01T00:00:00+00:00</time>
        <ele>3455.0</ele>
      </trkpt>
      <trkpt lat="46.120431" lon="8.019198">
        <time>1970-01-01T00:00:00+00:00</time>
        <ele>3473.0</ele>
      </trkpt>
      <trkpt lat="46.120791" lon="8.019335">
        <time>1970-01-01T00:00:00+00:00</time>
        <ele>3490.0</ele>
      </trkpt>
      <trkpt lat="46.121209" lon="8.01917">
        <time>1970-01-01T00:00:00+00:00</time>
        <ele>3518.0</ele>
      </trkpt>
      <trkpt lat="46.121298" lon="8.019229">
        <time>1970-01-01T00:00:00+00:00</time>
        <ele>3523.0</ele>
      </trkpt>
      <trkpt lat="46.121234" lon="8.019198">
        <time>1970-01-01T00:00:00+00:00</time>
        <ele>3519.0</ele>
      </trkpt>
      <trkpt lat="46.121597" lon="8.018756">
        <time>1970-01-01T00:00:00+00:00</time>
        <ele>3546.0</ele>
      </trkpt>
      <trkpt lat="46.121698" lon="8.018768">
        <time>1970-01-01T00:00:00+00:00</time>
        <ele>3549.0</ele>
      </trkpt>
      <trkpt lat="46.121849" lon="8.018568">
        <time>1970-01-01T00:00:00+00:00</time>
        <ele>3559.0</ele>
      </trkpt>
      <trkpt lat="46.122266" lon="8.018354">
        <time>1970-01-01T00:00:00+00:00</time>
        <ele>3584.0</ele>
      </trkpt>
      <trkpt lat="46.122371" lon="8.017949">
        <time>1970-01-01T00:00:00+00:00</time>
        <ele>3599.0</ele>
      </trkpt>
      <trkpt lat="46.12265" lon="8.017687">
        <time>1970-01-01T00:00:00+00:00</time>
        <ele>3625.0</ele>
      </trkpt>
      <trkpt lat="46.122833" lon="8.017323">
        <time>1970-01-01T00:00:00+00:00</time>
        <ele>3643.0</ele>
      </trkpt>
      <trkpt lat="46.122895" lon="8.017371">
        <time>1970-01-01T00:00:00+00:00</time>
        <ele>3646.0</ele>
      </trkpt>
      <trkpt lat="46.123257" lon="8.017269">
        <time>1970-01-01T00:00:00+00:00</time>
        <ele>3670.0</ele>
      </trkpt>
      <trkpt lat="46.123361" lon="8.017101">
        <time>1970-01-01T00:00:00+00:00</time>
        <ele>3680.0</ele>
      </trkpt>
      <trkpt lat="46.123289" lon="8.0172">
        <time>1970-01-01T00:00:00+00:00</time>
        <ele>3673.0</ele>
      </trkpt>
      <trkpt lat="46.123307" lon="8.017071">
        <time>1970-01-01T00:00:00+00:00</time>
        <ele>3678.0</ele>
      </trkpt>
      <trkpt lat="46.123477" lon="8.017037">
        <time>1970-01-01T00:00:00+00:00</time>
        <ele>3690.0</ele>
      </trkpt>
      <trkpt lat="46.123679" lon="8.01685">
        <time>1970-01-01T00:00:00+00:00</time>
        <ele>3712.0</ele>
      </trkpt>
      <trkpt lat="46.12384" lon="8.0169">
        <time>1970-01-01T00:00:00+00:00</time>
        <ele>3721.0</ele>
      </trkpt>
      <trkpt lat="46.124162" lon="8.016697">
        <time>1970-01-01T00:00:00+00:00</time>
        <ele>3756.0</ele>
      </trkpt>
      <trkpt lat="46.124191" lon="8.01674">
        <time>1970-01-01T00:00:00+00:00</time>
        <ele>3756.0</ele>
      </trkpt>
      <trkpt lat="46.12491" lon="8.016401">
        <time>1970-01-01T00:00:00+00:00</time>
        <ele>3818.0</ele>
      </trkpt>
      <trkpt lat="46.125166" lon="8.01619">
        <time>1970-01-01T00:00:00+00:00</time>
        <ele>3845.0</ele>
      </trkpt>
      <trkpt lat="46.125078" lon="8.016286">
        <time>1970-01-01T00:00:00+00:00</time>
        <ele>3834.0</ele>
      </trkpt>
      <trkpt lat="46.12524" lon="8.016066">
        <time>1970-01-01T00:00:00+00:00</time>
        <ele>3856.0</ele>
      </trkpt>
      <trkpt lat="46.125435" lon="8.016144">
        <time>1970-01-01T00:00:00+00:00</time>
        <ele>3861.0</ele>
      </trkpt>
      <trkpt lat="46.12559" lon="8.016018">
        <time>1970-01-01T00:00:00+00:00</time>
        <ele>3873.0</ele>
      </trkpt>
      <trkpt lat="46.125764" lon="8.016045">
        <time>1970-01-01T00:00:00+00:00</time>
        <ele>3876.0</ele>
      </trkpt>
      <trkpt lat="46.126316" lon="8.015151">
        <time>1970-01-01T00:00:00+00:00</time>
        <ele>3931.0</ele>
      </trkpt>
      <trkpt lat="46.127076" lon="8.013491">
        <time>1970-01-01T00:00:00+00:00</time>
        <ele>3953.0</ele>
      </trkpt>
      <trkpt lat="46.127186" lon="8.01295">
        <time>1970-01-01T00:00:00+00:00</time>
        <ele>3962.0</ele>
      </trkpt>
      <trkpt lat="46.127478" lon="8.01266">
        <time>1970-01-01T00:00:00+00:00</time>
        <ele>3967.0</ele>
      </trkpt>
      <trkpt lat="46.127634" lon="8.012322">
        <time>1970-01-01T00:00:00+00:00</time>
        <ele>3976.0</ele>
      </trkpt>
      <trkpt lat="46.127634" lon="8.012011">
        <time>1970-01-01T00:00:00+00:00</time>
        <ele>3987.0</ele>
      </trkpt>
      <trkpt lat="46.127809" lon="8.011054">
        <time>1970-01-01T00:00:00+00:00</time>
        <ele>3989.0</ele>
      </trkpt>
      <trkpt lat="46.127675" lon="8.009831">
        <time>1970-01-01T00:00:00+00:00</time>
        <ele>3946.0</ele>
      </trkpt>
      <trkpt lat="46.127924" lon="8.009802">
        <time>1970-01-01T00:00:00+00:00</time>
        <ele>3948.0</ele>
      </trkpt>
      <trkpt lat="46.127341" lon="8.008798">
        <time>1970-01-01T00:00:00+00:00</time>
        <ele>3888.0</ele>
      </trkpt>
      <trkpt lat="46.127277" lon="8.008397">
        <time>1970-01-01T00:00:00+00:00</time>
        <ele>3868.0</ele>
      </trkpt>
      <trkpt lat="46.126977" lon="8.00767">
        <time>1970-01-01T00:00:00+00:00</time>
        <ele>3832.0</ele>
      </trkpt>
      <trkpt lat="46.126202" lon="8.0061">
        <time>1970-01-01T00:00:00+00:00</time>
        <ele>3770.0</ele>
      </trkpt>
      <trkpt lat="46.126154" lon="8.00526">
        <time>1970-01-01T00:00:00+00:00</time>
        <ele>3797.0</ele>
      </trkpt>
      <trkpt lat="46.125979" lon="8.00483">
        <time>1970-01-01T00:00:00+00:00</time>
        <ele>3792.0</ele>
      </trkpt>
      <trkpt lat="46.125892" lon="8.00428">
        <time>1970-01-01T00:00:00+00:00</time>
        <ele>3791.0</ele>
      </trkpt>
      <trkpt lat="46.125999" lon="8.002135">
        <time>1970-01-01T00:00:00+00:00</time>
        <ele>3749.0</ele>
      </trkpt>
      <trkpt lat="46.126217" lon="8.000984">
        <time>1970-01-01T00:00:00+00:00</time>
        <ele>3709.0</ele>
      </trkpt>
      <trkpt lat="46.126188" lon="8.000476">
        <time>1970-01-01T00:00:00+00:00</time>
        <ele>3693.0</ele>
      </trkpt>
      <trkpt lat="46.126331" lon="8.000268">
        <time>1970-01-01T00:00:00+00:00</time>
        <ele>3673.0</ele>
      </trkpt>
      <trkpt lat="46.12632" lon="8.000026">
        <time>1970-01-01T00:00:00+00:00</time>
        <ele>3669.0</ele>
      </trkpt>
      <trkpt lat="46.126487" lon="7.99996">
        <time>1970-01-01T00:00:00+00:00</time>
        <ele>3660.0</ele>
      </trkpt>
      <trkpt lat="46.126504" lon="7.999644">
        <time>1970-01-01T00:00:00+00:00</time>
        <ele>3647.0</ele>
      </trkpt>
      <trkpt lat="46.1268" lon="7.999499">
        <time>1970-01-01T00:00:00+00:00</time>
        <ele>3625.0</ele>
      </trkpt>
      <trkpt lat="46.126984" lon="7.999827">
        <time>1970-01-01T00:00:00+00:00</time>
        <ele>3633.0</ele>
      </trkpt>
      <trkpt lat="46.127253" lon="7.999959">
        <time>1970-01-01T00:00:00+00:00</time>
        <ele>3625.0</ele>
      </trkpt>
      <trkpt lat="46.127458" lon="7.999506">
        <time>1970-01-01T00:00:00+00:00</time>
        <ele>3592.0</ele>
      </trkpt>
      <trkpt lat="46.127931" lon="7.999423">
        <time>1970-01-01T00:00:00+00:00</time>
        <ele>3558.0</ele>
      </trkpt>
      <trkpt lat="46.128117" lon="7.999322">
        <time>1970-01-01T00:00:00+00:00</time>
        <ele>3541.0</ele>
      </trkpt>
      <trkpt lat="46.128162" lon="7.999376">
        <time>1970-01-01T00:00:00+00:00</time>
        <ele>3540.0</ele>
      </trkpt>
      <trkpt lat="46.128417" lon="7.999139">
        <time>1970-01-01T00:00:00+00:00</time>
        <ele>3515.0</ele>
      </trkpt>
      <trkpt lat="46.128519" lon="7.999709">
        <time>1970-01-01T00:00:00+00:00</time>
        <ele>3509.0</ele>
      </trkpt>
      <trkpt lat="46.128434" lon="8.000281">
        <time>1970-01-01T00:00:00+00:00</time>
        <ele>3534.0</ele>
      </trkpt>
      <trkpt lat="46.128613" lon="8.000255">
        <time>1970-01-01T00:00:00+00:00</time>
        <ele>3508.0</ele>
      </trkpt>
      <trkpt lat="46.128752" lon="8.000003">
        <time>1970-01-01T00:00:00+00:00</time>
        <ele>3484.0</ele>
      </trkpt>
      <trkpt lat="46.128838" lon="8.000437">
        <time>1970-01-01T00:00:00+00:00</time>
        <ele>3482.0</ele>
      </trkpt>
      <trkpt lat="46.129092" lon="8.000631">
        <time>1970-01-01T00:00:00+00:00</time>
        <ele>3461.0</ele>
      </trkpt>
      <trkpt lat="46.129148" lon="8.000818">
        <time>1970-01-01T00:00:00+00:00</time>
        <ele>3463.0</ele>
      </trkpt>
      <trkpt lat="46.129361" lon="8.00093">
        <time>1970-01-01T00:00:00+00:00</time>
        <ele>3443.0</ele>
      </trkpt>
      <trkpt lat="46.129651" lon="8.000657">
        <time>1970-01-01T00:00:00+00:00</time>
        <ele>3413.0</ele>
      </trkpt>
      <trkpt lat="46.129949" lon="8.000026">
        <time>1970-01-01T00:00:00+00:00</time>
        <ele>3383.0</ele>
      </trkpt>
      <trkpt lat="46.13058" lon="7.9997">
        <time>1970-01-01T00:00:00+00:00</time>
        <ele>3352.0</ele>
      </trkpt>
      <trkpt lat="46.130997" lon="7.999774">
        <time>1970-01-01T00:00:00+00:00</time>
        <ele>3332.0</ele>
      </trkpt>
      <trkpt lat="46.131152" lon="7.999557">
        <time>1970-01-01T00:00:00+00:00</time>
        <ele>3318.0</ele>
      </trkpt>
      <trkpt lat="46.131416" lon="7.999431">
        <time>1970-01-01T00:00:00+00:00</time>
        <ele>3302.0</ele>
      </trkpt>
      <trkpt lat="46.132092" lon="7.999548">
        <time>1970-01-01T00:00:00+00:00</time>
        <ele>3279.0</ele>
      </trkpt>
      <trkpt lat="46.132166" lon="7.999678">
        <time>1970-01-01T00:00:00+00:00</time>
        <ele>3280.0</ele>
      </trkpt>
      <trkpt lat="46.132719" lon="7.999773">
        <time>1970-01-01T00:00:00+00:00</time>
        <ele>3265.0</ele>
      </trkpt>
      <trkpt lat="46.134458" lon="7.99932">
        <time>1970-01-01T00:00:00+00:00</time>
        <ele>3230.0</ele>
      </trkpt>
      <trkpt lat="46.134956" lon="7.999383">
        <time>1970-01-01T00:00:00+00:00</time>
        <ele>3232.0</ele>
      </trkpt>
      <trkpt lat="46.135664" lon="7.998842">
        <time>1970-01-01T00:00:00+00:00</time>
        <ele>3202.0</ele>
      </trkpt>
      <trkpt lat="46.135677" lon="7.998959">
        <time>1970-01-01T00:00:00+00:00</time>
        <ele>3206.0</ele>
      </trkpt>
      <trkpt lat="46.136029" lon="7.998835">
        <time>1970-01-01T00:00:00+00:00</time>
        <ele>3191.0</ele>
      </trkpt>
      <trkpt lat="46.13622" lon="7.998926">
        <time>1970-01-01T00:00:00+00:00</time>
        <ele>3190.0</ele>
      </trkpt>
      <trkpt lat="46.136501" lon="7.99815">
        <time>1970-01-01T00:00:00+00:00</time>
        <ele>3176.0</ele>
      </trkpt>
      <trkpt lat="46.136404" lon="7.997864">
        <time>1970-01-01T00:00:00+00:00</time>
        <ele>3171.0</ele>
      </trkpt>
      <trkpt lat="46.136456" lon="7.99737">
        <time>1970-01-01T00:00:00+00:00</time>
        <ele>3155.0</ele>
      </trkpt>
      <trkpt lat="46.136669" lon="7.996982">
        <time>1970-01-01T00:00:00+00:00</time>
        <ele>3146.0</ele>
      </trkpt>
      <trkpt lat="46.136697" lon="7.996277">
        <time>1970-01-01T00:00:00+00:00</time>
        <ele>3125.0</ele>
      </trkpt>
      <trkpt lat="46.136893" lon="7.996069">
        <time>1970-01-01T00:00:00+00:00</time>
        <ele>3121.0</ele>
      </trkpt>
      <trkpt lat="46.137015" lon="7.995759">
        <time>1970-01-01T00:00:00+00:00</time>
        <ele>3109.0</ele>
      </trkpt>
      <trkpt lat="46.136929" lon="7.995273">
        <time>1970-01-01T00:00:00+00:00</time>
        <ele>3087.0</ele>
      </trkpt>
      <trkpt lat="46.137015" lon="7.995046">
        <time>1970-01-01T00:00:00+00:00</time>
        <ele>3084.0</ele>
      </trkpt>
      <trkpt lat="46.137033" lon="7.995476">
        <time>1970-01-01T00:00:00+00:00</time>
        <ele>3099.0</ele>
      </trkpt>
      <trkpt lat="46.136933" lon="7.995046">
        <time>1970-01-01T00:00:00+00:00</time>
        <ele>3080.0</ele>
      </trkpt>
      <trkpt lat="46.137118" lon="7.995096">
        <time>1970-01-01T00:00:00+00:00</time>
        <ele>3094.0</ele>
      </trkpt>
      <trkpt lat="46.137081" lon="7.995289">
        <time>1970-01-01T00:00:00+00:00</time>
        <ele>3097.0</ele>
      </trkpt>
      <trkpt lat="46.136991" lon="7.99531">
        <time>1970-01-01T00:00:00+00:00</time>
        <ele>3091.0</ele>
      </trkpt>
      <trkpt lat="46.137155" lon="7.995268">
        <time>1970-01-01T00:00:00+00:00</time>
        <ele>3103.0</ele>
      </trkpt>
      <trkpt lat="46.137295" lon="7.994849">
        <time>1970-01-01T00:00:00+00:00</time>
        <ele>3101.0</ele>
      </trkpt>
      <trkpt lat="46.137299" lon="7.99449">
        <time>1970-01-01T00:00:00+00:00</time>
        <ele>3091.0</ele>
      </trkpt>
      <trkpt lat="46.137598" lon="7.99378">
        <time>1970-01-01T00:00:00+00:00</time>
        <ele>3096.0</ele>
      </trkpt>
      <trkpt lat="46.137617" lon="7.993186">
        <time>1970-01-01T00:00:00+00:00</time>
        <ele>3073.0</ele>
      </trkpt>
      <trkpt lat="46.137827" lon="7.992613">
        <time>1970-01-01T00:00:00+00:00</time>
        <ele>3067.0</ele>
      </trkpt>
      <trkpt lat="46.137981" lon="7.99241">
        <time>1970-01-01T00:00:00+00:00</time>
        <ele>3071.0</ele>
      </trkpt>
      <trkpt lat="46.138323" lon="7.992266">
        <time>1970-01-01T00:00:00+00:00</time>
        <ele>3091.0</ele>
      </trkpt>
      <trkpt lat="46.138676" lon="7.991965">
        <time>1970-01-01T00:00:00+00:00</time>
        <ele>3102.0</ele>
      </trkpt>
      <trkpt lat="46.139084" lon="7.991111">
        <time>1970-01-01T00:00:00+00:00</time>
        <ele>3105.0</ele>
      </trkpt>
      <trkpt lat="46.139406" lon="7.990235">
        <time>1970-01-01T00:00:00+00:00</time>
        <ele>3106.0</ele>
      </trkpt>
      <trkpt lat="46.139616" lon="7.98984">
        <time>1970-01-01T00:00:00+00:00</time>
        <ele>3105.0</ele>
      </trkpt>
      <trkpt lat="46.13994" lon="7.989487">
        <time>1970-01-01T00:00:00+00:00</time>
        <ele>3099.0</ele>
      </trkpt>
      <trkpt lat="46.139708" lon="7.988942">
        <time>1970-01-01T00:00:00+00:00</time>
        <ele>3087.0</ele>
      </trkpt>
      <trkpt lat="46.139234" lon="7.988519">
        <time>1970-01-01T00:00:00+00:00</time>
        <ele>3069.0</ele>
      </trkpt>
      <trkpt lat="46.139188" lon="7.988573">
        <time>1970-01-01T00:00:00+00:00</time>
        <ele>3066.0</ele>
      </trkpt>
      <trkpt lat="46.139366" lon="7.988544">
        <time>1970-01-01T00:00:00+00:00</time>
        <ele>3074.0</ele>
      </trkpt>
      <trkpt lat="46.139847" lon="7.98822">
        <time>1970-01-01T00:00:00+00:00</time>
        <ele>3069.0</ele>
      </trkpt>
      <trkpt lat="46.13945" lon="7.987922">
        <time>1970-01-01T00:00:00+00:00</time>
        <ele>3060.0</ele>
      </trkpt>
      <trkpt lat="46.139806" lon="7.987876">
        <time>1970-01-01T00:00:00+00:00</time>
        <ele>3061.0</ele>
      </trkpt>
      <trkpt lat="46.13943" lon="7.98741">
        <time>1970-01-01T00:00:00+00:00</time>
        <ele>3048.0</ele>
      </trkpt>
      <trkpt lat="46.139475" lon="7.987327">
        <time>1970-01-01T00:00:00+00:00</time>
        <ele>3048.0</ele>
      </trkpt>
      <trkpt lat="46.139757" lon="7.987138">
        <time>1970-01-01T00:00:00+00:00</time>
        <ele>3048.0</ele>
      </trkpt>
      <trkpt lat="46.14003" lon="7.987252">
        <time>1970-01-01T00:00:00+00:00</time>
        <ele>3045.0</ele>
      </trkpt>
      <trkpt lat="46.140062" lon="7.987137">
        <time>1970-01-01T00:00:00+00:00</time>
        <ele>3043.0</ele>
      </trkpt>
      <trkpt lat="46.140202" lon="7.987708">
        <time>1970-01-01T00:00:00+00:00</time>
        <ele>3045.0</ele>
      </trkpt>
      <trkpt lat="46.140416" lon="7.987866">
        <time>1970-01-01T00:00:00+00:00</time>
        <ele>3038.0</ele>
      </trkpt>
      <trkpt lat="46.140922" lon="7.987857">
        <time>1970-01-01T00:00:00+00:00</time>
        <ele>3022.0</ele>
      </trkpt>
      <trkpt lat="46.141142" lon="7.988108">
        <time>1970-01-01T00:00:00+00:00</time>
        <ele>3026.0</ele>
      </trkpt>
      <trkpt lat="46.140976" lon="7.987668">
        <time>1970-01-01T00:00:00+00:00</time>
        <ele>3017.0</ele>
      </trkpt>
      <trkpt lat="46.141189" lon="7.988158">
        <time>1970-01-01T00:00:00+00:00</time>
        <ele>3026.0</ele>
      </trkpt>
      <trkpt lat="46.141443" lon="7.988399">
        <time>1970-01-01T00:00:00+00:00</time>
        <ele>3025.0</ele>
      </trkpt>
      <trkpt lat="46.14177" lon="7.988442">
        <time>1970-01-01T00:00:00+00:00</time>
        <ele>3024.0</ele>
      </trkpt>
      <trkpt lat="46.142195" lon="7.988319">
        <time>1970-01-01T00:00:00+00:00</time>
        <ele>3018.0</ele>
      </trkpt>
      <trkpt lat="46.142804" lon="7.9879">
        <time>1970-01-01T00:00:00+00:00</time>
        <ele>3004.0</ele>
      </trkpt>
      <trkpt lat="46.142915" lon="7.987941">
        <time>1970-01-01T00:00:00+00:00</time>
        <ele>3004.0</ele>
      </trkpt>
      <trkpt lat="46.143002" lon="7.987765">
        <time>1970-01-01T00:00:00+00:00</time>
        <ele>3000.0</ele>
      </trkpt>
      <trkpt lat="46.142953" lon="7.987669">
        <time>1970-01-01T00:00:00+00:00</time>
        <ele>2999.0</ele>
      </trkpt>
      <trkpt lat="46.143441" lon="7.986814">
        <time>1970-01-01T00:00:00+00:00</time>
        <ele>2988.0</ele>
      </trkpt>
      <trkpt lat="46.143391" lon="7.986983">
        <time>1970-01-01T00:00:00+00:00</time>
        <ele>2990.0</ele>
      </trkpt>
      <trkpt lat="46.143477" lon="7.987086">
        <time>1970-01-01T00:00:00+00:00</time>
        <ele>2991.0</ele>
      </trkpt>
      <trkpt lat="46.143261" lon="7.987988">
        <time>1970-01-01T00:00:00+00:00</time>
        <ele>2997.0</ele>
      </trkpt>
      <trkpt lat="46.14333" lon="7.988334">
        <time>1970-01-01T00:00:00+00:00</time>
        <ele>2991.0</ele>
      </trkpt>
      <trkpt lat="46.143248" lon="7.988569">
        <time>1970-01-01T00:00:00+00:00</time>
        <ele>2995.0</ele>
      </trkpt>
      <trkpt lat="46.143392" lon="7.988885">
        <time>1970-01-01T00:00:00+00:00</time>
        <ele>2984.0</ele>
      </trkpt>
      <trkpt lat="46.143623" lon="7.989128">
        <time>1970-01-01T00:00:00+00:00</time>
        <ele>2974.0</ele>
      </trkpt>
      <trkpt lat="46.143909" lon="7.989669">
        <time>1970-01-01T00:00:00+00:00</time>
        <ele>2966.0</ele>
      </trkpt>
      <trkpt lat="46.144157" lon="7.989668">
        <time>1970-01-01T00:00:00+00:00</time>
        <ele>2958.0</ele>
      </trkpt>
      <trkpt lat="46.144489" lon="7.989269">
        <time>1970-01-01T00:00:00+00:00</time>
        <ele>2949.0</ele>
      </trkpt>
      <trkpt lat="46.144425" lon="7.989004">
        <time>1970-01-01T00:00:00+00:00</time>
        <ele>2946.0</ele>
      </trkpt>
      <trkpt lat="46.144904" lon="7.98819">
        <time>1970-01-01T00:00:00+00:00</time>
        <ele>2935.0</ele>
      </trkpt>
      <trkpt lat="46.145091" lon="7.987439">
        <time>1970-01-01T00:00:00+00:00</time>
        <ele>2925.0</ele>
      </trkpt>
      <trkpt lat="46.145203" lon="7.986162">
        <time>1970-01-01T00:00:00+00:00</time>
        <ele>2919.0</ele>
      </trkpt>
      <trkpt lat="46.145364" lon="7.985893">
        <time>1970-01-01T00:00:00+00:00</time>
        <ele>2918.0</ele>
      </trkpt>
      <trkpt lat="46.145386" lon="7.985697">
        <time>1970-01-01T00:00:00+00:00</time>
        <ele>2916.0</ele>
      </trkpt>
      <trkpt lat="46.145234" lon="7.985542">
        <time>1970-01-01T00:00:00+00:00</time>
        <ele>2911.0</ele>
      </trkpt>
      <trkpt lat="46.145193" lon="7.985115">
        <time>1970-01-01T00:00:00+00:00</time>
        <ele>2904.0</ele>
      </trkpt>
      <trkpt lat="46.145203" lon="7.983175">
        <time>1970-01-01T00:00:00+00:00</time>
        <ele>2873.0</ele>
      </trkpt>
      <trkpt lat="46.145403" lon="7.982968">
        <time>1970-01-01T00:00:00+00:00</time>
        <ele>2869.0</ele>
      </trkpt>
      <trkpt lat="46.14547" lon="7.982619">
        <time>1970-01-01T00:00:00+00:00</time>
        <ele>2856.0</ele>
      </trkpt>
      <trkpt lat="46.145661" lon="7.982731">
        <time>1970-01-01T00:00:00+00:00</time>
        <ele>2860.0</ele>
      </trkpt>
      <trkpt lat="46.145591" lon="7.98235">
        <time>1970-01-01T00:00:00+00:00</time>
        <ele>2847.0</ele>
      </trkpt>
      <trkpt lat="46.145769" lon="7.982375">
        <time>1970-01-01T00:00:00+00:00</time>
        <ele>2847.0</ele>
      </trkpt>
      <trkpt lat="46.145966" lon="7.98227">
        <time>1970-01-01T00:00:00+00:00</time>
        <ele>2844.0</ele>
      </trkpt>
      <trkpt lat="46.146159" lon="7.98241">
        <time>1970-01-01T00:00:00+00:00</time>
        <ele>2847.0</ele>
      </trkpt>
      <trkpt lat="46.146013" lon="7.981923">
        <time>1970-01-01T00:00:00+00:00</time>
        <ele>2832.0</ele>
      </trkpt>
      <trkpt lat="46.146334" lon="7.98202">
        <time>1970-01-01T00:00:00+00:00</time>
        <ele>2836.0</ele>
      </trkpt>
      <trkpt lat="46.146266" lon="7.981591">
        <time>1970-01-01T00:00:00+00:00</time>
        <ele>2822.0</ele>
      </trkpt>
      <trkpt lat="46.146448" lon="7.981543">
        <time>1970-01-01T00:00:00+00:00</time>
        <ele>2822.0</ele>
      </trkpt>
      <trkpt lat="46.146523" lon="7.981619">
        <time>1970-01-01T00:00:00+00:00</time>
        <ele>2824.0</ele>
      </trkpt>
      <trkpt lat="46.146393" lon="7.981277">
        <time>1970-01-01T00:00:00+00:00</time>
        <ele>2813.0</ele>
      </trkpt>
      <trkpt lat="46.146559" lon="7.981323">
        <time>1970-01-01T00:00:00+00:00</time>
        <ele>2815.0</ele>
      </trkpt>
      <trkpt lat="46.146496" lon="7.9811">
        <time>1970-01-01T00:00:00+00:00</time>
        <ele>2805.0</ele>
      </trkpt>
      <trkpt lat="46.14666" lon="7.981125">
        <time>1970-01-01T00:00:00+00:00</time>
        <ele>2807.0</ele>
      </trkpt>
      <trkpt lat="46.146628" lon="7.980905">
        <time>1970-01-01T00:00:00+00:00</time>
        <ele>2797.0</ele>
      </trkpt>
      <trkpt lat="46.146758" lon="7.980582">
        <time>1970-01-01T00:00:00+00:00</time>
        <ele>2795.0</ele>
      </trkpt>
      <trkpt lat="46.146679" lon="7.980478">
        <time>1970-01-01T00:00:00+00:00</time>
        <ele>2791.0</ele>
      </trkpt>
      <trkpt lat="46.146763" lon="7.980364">
        <time>1970-01-01T00:00:00+00:00</time>
        <ele>2792.0</ele>
      </trkpt>
      <trkpt lat="46.146465" lon="7.980421">
        <time>1970-01-01T00:00:00+00:00</time>
        <ele>2782.0</ele>
      </trkpt>
      <trkpt lat="46.146399" lon="7.980208">
        <time>1970-01-01T00:00:00+00:00</time>
        <ele>2776.0</ele>
      </trkpt>
      <trkpt lat="46.146292" lon="7.980317">
        <time>1970-01-01T00:00:00+00:00</time>
        <ele>2774.0</ele>
      </trkpt>
      <trkpt lat="46.146066" lon="7.980326">
        <time>1970-01-01T00:00:00+00:00</time>
        <ele>2769.0</ele>
      </trkpt>
      <trkpt lat="46.145149" lon="7.980105">
        <time>1970-01-01T00:00:00+00:00</time>
        <ele>2757.0</ele>
      </trkpt>
      <trkpt lat="46.144917" lon="7.980172">
        <time>1970-01-01T00:00:00+00:00</time>
        <ele>2759.0</ele>
      </trkpt>
      <trkpt lat="46.144256" lon="7.979698">
        <time>1970-01-01T00:00:00+00:00</time>
        <ele>2750.0</ele>
      </trkpt>
      <trkpt lat="46.144034" lon="7.978143">
        <time>1970-01-01T00:00:00+00:00</time>
        <ele>2711.0</ele>
      </trkpt>
      <trkpt lat="46.14378" lon="7.978013">
        <time>1970-01-01T00:00:00+00:00</time>
        <ele>2706.0</ele>
      </trkpt>
      <trkpt lat="46.143964" lon="7.977805">
        <time>1970-01-01T00:00:00+00:00</time>
        <ele>2699.0</ele>
      </trkpt>
      <trkpt lat="46.143855" lon="7.977889">
        <time>1970-01-01T00:00:00+00:00</time>
        <ele>2702.0</ele>
      </trkpt>
      <trkpt lat="46.143955" lon="7.977818">
        <time>1970-01-01T00:00:00+00:00</time>
        <ele>2699.0</ele>
      </trkpt>
      <trkpt lat="46.143924" lon="7.977609">
        <time>1970-01-01T00:00:00+00:00</time>
        <ele>2693.0</ele>
      </trkpt>
      <trkpt lat="46.143804" lon="7.977628">
        <time>1970-01-01T00:00:00+00:00</time>
        <ele>2695.0</ele>
      </trkpt>
      <trkpt lat="46.143868" lon="7.977237">
        <time>1970-01-01T00:00:00+00:00</time>
        <ele>2679.0</ele>
      </trkpt>
      <trkpt lat="46.143696" lon="7.977274">
        <time>1970-01-01T00:00:00+00:00</time>
        <ele>2683.0</ele>
      </trkpt>
      <trkpt lat="46.143674" lon="7.97688">
        <time>1970-01-01T00:00:00+00:00</time>
        <ele>2670.0</ele>
      </trkpt>
      <trkpt lat="46.143354" lon="7.977166">
        <time>1970-01-01T00:00:00+00:00</time>
        <ele>2673.0</ele>
      </trkpt>
      <trkpt lat="46.143297" lon="7.977013">
        <time>1970-01-01T00:00:00+00:00</time>
        <ele>2668.0</ele>
      </trkpt>
      <trkpt lat="46.143395" lon="7.976632">
        <time>1970-01-01T00:00:00+00:00</time>
        <ele>2657.0</ele>
      </trkpt>
      <trkpt lat="46.143163" lon="7.97654">
        <time>1970-01-01T00:00:00+00:00</time>
        <ele>2651.0</ele>
      </trkpt>
      <trkpt lat="46.143164" lon="7.976264">
        <time>1970-01-01T00:00:00+00:00</time>
        <ele>2637.0</ele>
      </trkpt>
      <trkpt lat="46.143059" lon="7.976289">
        <time>1970-01-01T00:00:00+00:00</time>
        <ele>2637.0</ele>
      </trkpt>
      <trkpt lat="46.143137" lon="7.976156">
        <time>1970-01-01T00:00:00+00:00</time>
        <ele>2633.0</ele>
      </trkpt>
      <trkpt lat="46.143022" lon="7.976102">
        <time>1970-01-01T00:00:00+00:00</time>
        <ele>2630.0</ele>
      </trkpt>
      <trkpt lat="46.143147" lon="7.976027">
        <time>1970-01-01T00:00:00+00:00</time>
        <ele>2629.0</ele>
      </trkpt>
      <trkpt lat="46.143089" lon="7.975854">
        <time>1970-01-01T00:00:00+00:00</time>
        <ele>2624.0</ele>
      </trkpt>
      <trkpt lat="46.143289" lon="7.975628">
        <time>1970-01-01T00:00:00+00:00</time>
        <ele>2616.0</ele>
      </trkpt>
      <trkpt lat="46.142952" lon="7.975315">
        <time>1970-01-01T00:00:00+00:00</time>
        <ele>2606.0</ele>
      </trkpt>
      <trkpt lat="46.143138" lon="7.975028">
        <time>1970-01-01T00:00:00+00:00</time>
        <ele>2597.0</ele>
      </trkpt>
      <trkpt lat="46.142841" lon="7.974972">
        <time>1970-01-01T00:00:00+00:00</time>
        <ele>2595.0</ele>
      </trkpt>
      <trkpt lat="46.142879" lon="7.97467">
        <time>1970-01-01T00:00:00+00:00</time>
        <ele>2586.0</ele>
      </trkpt>
      <trkpt lat="46.142718" lon="7.974573">
        <time>1970-01-01T00:00:00+00:00</time>
        <ele>2585.0</ele>
      </trkpt>
      <trkpt lat="46.142578" lon="7.974166">
        <time>1970-01-01T00:00:00+00:00</time>
        <ele>2580.0</ele>
      </trkpt>
      <trkpt lat="46.142494" lon="7.974189">
        <time>1970-01-01T00:00:00+00:00</time>
        <ele>2580.0</ele>
      </trkpt>
      <trkpt lat="46.141778" lon="7.97354">
        <time>1970-01-01T00:00:00+00:00</time>
        <ele>2564.0</ele>
      </trkpt>
      <trkpt lat="46.141778" lon="7.973318">
        <time>1970-01-01T00:00:00+00:00</time>
        <ele>2560.0</ele>
      </trkpt>
      <trkpt lat="46.141475" lon="7.973128">
        <time>1970-01-01T00:00:00+00:00</time>
        <ele>2552.0</ele>
      </trkpt>
      <trkpt lat="46.141276" lon="7.972511">
        <time>1970-01-01T00:00:00+00:00</time>
        <ele>2541.0</ele>
      </trkpt>
      <trkpt lat="46.141089" lon="7.972345">
        <time>1970-01-01T00:00:00+00:00</time>
        <ele>2539.0</ele>
      </trkpt>
      <trkpt lat="46.141046" lon="7.972195">
        <time>1970-01-01T00:00:00+00:00</time>
        <ele>2538.0</ele>
      </trkpt>
      <trkpt lat="46.141215" lon="7.971962">
        <time>1970-01-01T00:00:00+00:00</time>
        <ele>2534.0</ele>
      </trkpt>
      <trkpt lat="46.141136" lon="7.971647">
        <time>1970-01-01T00:00:00+00:00</time>
        <ele>2529.0</ele>
      </trkpt>
      <trkpt lat="46.140555" lon="7.969856">
        <time>1970-01-01T00:00:00+00:00</time>
        <ele>2511.0</ele>
      </trkpt>
      <trkpt lat="46.140036" lon="7.968873">
        <time>1970-01-01T00:00:00+00:00</time>
        <ele>2498.0</ele>
      </trkpt>
      <trkpt lat="46.139968" lon="7.968482">
        <time>1970-01-01T00:00:00+00:00</time>
        <ele>2488.0</ele>
      </trkpt>
      <trkpt lat="46.140081" lon="7.968338">
        <time>1970-01-01T00:00:00+00:00</time>
        <ele>2484.0</ele>
      </trkpt>
      <trkpt lat="46.139951" lon="7.968061">
        <time>1970-01-01T00:00:00+00:00</time>
        <ele>2477.0</ele>
      </trkpt>
      <trkpt lat="46.13966" lon="7.967916">
        <time>1970-01-01T00:00:00+00:00</time>
        <ele>2470.0</ele>
      </trkpt>
      <trkpt lat="46.139728" lon="7.967358">
        <time>1970-01-01T00:00:00+00:00</time>
        <ele>2463.0</ele>
      </trkpt>
      <trkpt lat="46.139631" lon="7.967096">
        <time>1970-01-01T00:00:00+00:00</time>
        <ele>2454.0</ele>
      </trkpt>
      <trkpt lat="46.139645" lon="7.966607">
        <time>1970-01-01T00:00:00+00:00</time>
        <ele>2439.0</ele>
      </trkpt>
      <trkpt lat="46.139786" lon="7.966485">
        <time>1970-01-01T00:00:00+00:00</time>
        <ele>2438.0</ele>
      </trkpt>
      <trkpt lat="46.139975" lon="7.966486">
        <time>1970-01-01T00:00:00+00:00</time>
        <ele>2441.0</ele>
      </trkpt>
      <trkpt lat="46.139879" lon="7.965864">
        <time>1970-01-01T00:00:00+00:00</time>
        <ele>2431.0</ele>
      </trkpt>
      <trkpt lat="46.13961" lon="7.965884">
        <time>1970-01-01T00:00:00+00:00</time>
        <ele>2425.0</ele>
      </trkpt>
      <trkpt lat="46.139331" lon="7.965676">
        <time>1970-01-01T00:00:00+00:00</time>
        <ele>2420.0</ele>
      </trkpt>
      <trkpt lat="46.139027" lon="7.964901">
        <time>1970-01-01T00:00:00+00:00</time>
        <ele>2407.0</ele>
      </trkpt>
      <trkpt lat="46.138818" lon="7.963815">
        <time>1970-01-01T00:00:00+00:00</time>
        <ele>2398.0</ele>
      </trkpt>
      <trkpt lat="46.138725" lon="7.963873">
        <time>1970-01-01T00:00:00+00:00</time>
        <ele>2399.0</ele>
      </trkpt>
      <trkpt lat="46.138535" lon="7.963734">
        <time>1970-01-01T00:00:00+00:00</time>
        <ele>2395.0</ele>
      </trkpt>
      <trkpt lat="46.138367" lon="7.964062">
        <time>1970-01-01T00:00:00+00:00</time>
        <ele>2394.0</ele>
      </trkpt>
    </trkseg>
  </trk>
</gpx>
